Tracking 18980 objects as of 22-Feb-2018
HD Live streaming from Space Station
objects crossing your sky now

FENGYUN 1C DEB

Track FENGYUN 1C DEB now!
10-day predictions


NORAD ID: 30216
Int'l Code: 1999-025VZ
Perigee: 624.7 km
Apogee: 744.7 km
Inclination: 99.1 °
Period: 98.3 minutes
Semi major axis: 7055 km
RCS: 0.0219 m2 (small)
Launch date: May 10, 1999
Source: People's Republic of China (PRC)
Launch site: Taiyaun Space Center, China (TSC)

Note: This is SATELLITE DEBRIS
aabbcc
Your satellite tracking list
Your tracking list is empty




NASA's NSSDC Master Catalog

Two Line Element Set (TLE):
1 30216U 99025VZ  18052.91815698 +.00001454 +00000-0 +26918-3 0  9993
2 30216 099.0808 036.9311 0085018 110.9485 308.3364 14.64855183586675
Source of the keplerian elements: AFSPC